Regional Weather Roundup
Issued by NWS Columbia, SC

Home | Current Version | Previous Version | Text Only | Print | Product List | Glossary On
Versions: 1 2 3 4 5 6 7 8 9 10 11 12 13 14 15 16 17 18 19 20 21 22 23 24 25 26 27 28 29 30 31 32 33 34 35 36 37 38 39 40 41 42 43 44 45 46 47 48 49 50
000
ASUS42 KCAE 090910
RWRCAE
REGIONAL WEATHER ROUNDUP
NATIONAL WEATHER SERVICE COLUMBIA SC
400 AM EST TUE FEB 09 2016

NOTE: "FAIR" INDICATES FEW OR NO CLOUDS BELOW 12,000 FEET WITH NO
SIGNIFICANT WEATHER AND/OR OBSTRUCTIONS TO VISIBILITY.

NOT ALL STATIONS ARE QUALITY CONTROLLED BY THE NATIONAL
WEATHER SERVICE. USE DATA WITH CAUTION...ESPECIALLY
DEWPOINT OBSERVATIONS.

SCZ001>056-GAZ040-063>065-077-091000-
...UPSTATE SOUTH CAROLINA...

CITY           SKY/WX    TMP DP  RH WIND       PRES   REMARKS
ANDERSON       MOCLDY    35  18  49 W18G31    29.73S WCI  24
LIBERTY        SUNNY     32  17  52 NW8       29.70S WCI  25
SPARTANBURG    CLOUDY    34  14  44 W10       29.68S WCI  26
CLEMSON        MOCLDY    35  18  49 W15       29.72F WCI  25
GREENVILLE     PTCLDY    34  14  43 W13       29.69F WCI  25
GREENWOOD      PTCLDY    34  19  54 W8G17     29.75R WCI  27
GREER          MOCLDY    33  17  51 W10       29.67F WCI  25
ROCK HILL      CLEAR     33  24  69 W9        29.66S WCI  25
LAURENS        SUNNY     34  21  60 W6        29.71S WCI  29


...CENTRAL SOUTH CAROLINA...

CITY           SKY/WX    TMP DP  RH WIND       PRES   REMARKS
COLUMBIA APT   CLEAR     38  22  52 W17G28    29.72S WCI  28
COLUMBIA OWENS CLEAR     39  23  52 W13G21    29.73S WCI  31
ORANGEBURG     CLEAR     39  23  52 W15G24    29.75R WCI  31
SUMTER SHAW    CLEAR     36  26  65 W9        29.69S WCI  29
NEWBERRY       SUNNY     34  21  60 W13G18    29.74S WCI  25
AIKEN          FAIR      34  21  60 W10G21    29.78S WCI  26
BARNWELL       FAIR      39  27  60 W6G16     29.79R WCI  35
CAMDEN         PTSUNNY   37  37 100 W8        29.70S WCI  31
LANCASTER      SUNNY     34  25  69 SW12      29.68S WCI  25
WINNSBORO      SUNNY     34  27  75 W7        29.70S WCI  28


...EASTERN AND COASTAL SOUTH CAROLINA...

CITY           SKY/WX    TMP DP  RH WIND       PRES   REMARKS
MYRTLE BEACH   CLEAR     41  28  60 W12       29.70R
N MYRTLE BCH   PTCLDY    41  32  70 W9        29.66R
CONWAY         FAIR      39  30  70 W3        29.68S
MARION         FAIR      37  32  81 W8        29.67S WCI  31
HARTSVILLE     CLOUDY    36  32  87 CALM      29.67S
FLORENCE       MOCLDY    39  28  64 W10       29.68R WCI  32
DARLINGTON     CLOUDY    39  28  65 W13       29.68S WCI  32
CHARLESTON APT CLEAR     39  31  72 W10       29.76R WCI  32
MOUNT PLEASANT FAIR      43  32  65 W13G18    29.76R
WALTERBORO     MOSUNNY   39  32  75 W8        29.79R WCI  34
BEAUFORT       PTCLDY    39  30  70 W10       29.81R WCI  32


...EASTERN GEORGIA...

CITY           SKY/WX    TMP DP  RH WIND       PRES   REMARKS
AUGUSTA BUSH F CLEAR     35  23  61 W7        29.80R WCI  29
AUGUSTA DANIEL CLEAR     38  21  50 VRB6      29.79S WCI  33
THOMSON        MOCLDY    34  29  83 SW5       29.83S WCI  29
WASHINGTON     MOCLDY    39  32  75 CALM      29.78R
CLAXTON        FAIR      39  31  74 W7        29.85R WCI  34
SYLVANIA       SUNNY     39  32  77 W9        29.82S WCI  32
STATESBORO     PTCLDY    42  25  51 W10       29.83S
SAVANNAH       CLEAR     38  30  73 W10       29.84R WCI  31


...SOUTHERN NORTH CAROLINA...

CITY           SKY/WX    TMP DP  RH WIND       PRES   REMARKS
CHARLOTTE      PTCLDY    34  23  64 W7        29.65S WCI  28
MONROE         CLEAR     32  29  88 SW6       29.64F WCI  26
WADESBORO      CLOUDY    38  34  86 W3        29.66R
ROCKINGHAM     LGT RAIN  35  35  99 SW5       29.65R WCI  31
RUTHERFORDTON  PTCLDY    32  18  55 NW9       29.67S WCI  24
ASHEVILLE      FLURRIES  26  19  74 N8        29.64F WCI  18

$$



USA.gov is the U.S. government's official web portal to all federal, state and local government web resources and services.